GW6539 Weather Reports


Display with metric or nautical units.
time (UTC)temp
F
wind
direction
speed
MPH
gust
MPH
rain 1hr
in
rain 24hr
in
rain mn
in
humidity
%
barometer
mb
20260504175334 81 109 10.0 15.0 0.00 0.00 0.00 88 1010.5
20260504174832 81 113 7.0 8.0 0.00 0.00 0.00 88 1010.8
20260504174329 81 102 9.0 12.0 0.00 0.00 0.00 88 1010.8
20260504173826 81 99 8.0 11.0 0.00 0.00 0.00 88 1010.8
20260504173323 81 103 9.0 13.0 0.00 0.00 0.00 88 1010.8
20260504172820 81 100 9.0 13.0 0.00 0.00 0.00 88 1010.8
20260504172317 81 95 10.0 13.0 0.00 0.00 0.00 87 1010.8
20260504171812 81 93 9.0 12.0 0.00 0.00 0.00 88 1010.8
20260504171310 81 93 8.0 10.0 0.00 0.00 0.00 87 1010.8
20260504170807 81 86 7.0 12.0 0.00 0.00 0.00 87 1010.8
20260504170304 81 110 10.0 14.0 0.00 0.00 0.00 87 1010.8
20260504160222 82 105 8.0 11.0 0.00 0.00 0.00 84 1011.1
20260504150652 82 116 6.0 9.0 0.00 0.00 0.00 86 1011.5
20260504150149 82 117 9.0 13.0 0.00 0.00 0.00 86 1011.5
20260504141118 81 99 9.0 13.0 0.00 0.00 0.00 87 1011.8
20260504140615 81 92 9.0 12.0 0.00 0.00 0.00 87 1011.8
20260504140110 81 98 9.0 13.0 0.00 0.00 0.00 86 1011.8
20260504130539 81 86 10.0 14.0 0.00 0.06 0.06 88 1012.2
20260504110426 82 88 11.0 17.0 0.00 0.05 0.05 85 1011.5
20260504100349 81 89 10.0 13.0 0.00 0.05 0.05 88 1011.1
20260504081742 81 73 9.0 10.0 0.00 0.05 0.05 87 1010.1
20260504081238 81 75 9.0 11.0 0.00 0.05 0.05 88 1009.8
20260504080735 81 68 11.0 16.0 0.00 0.05 0.05 88 1009.8
20260504080231 81 65 14.0 17.0 0.00 0.05 0.05 89 1009.8
20260504070159 81 63 10.0 13.0 0.00 0.01 0.01 87 1009.4
20260504060120 84 80 15.0 20.0 0.00 0.01 0.01 80 1009.4
20260504050548 82 71 14.0 19.0 0.00 0.01 0.01 85 1009.8
20260504045541 85 92 12.0 17.0 0.00 0.00 0.00 80 1009.8
20260504045037 85 101 13.0 17.0 0.00 0.00 0.00 80 1009.8
20260504044535 85 85 11.0 14.0 0.00 0.00 0.00 79 1010.1
20260504044031 88 82 14.0 23.0 0.00 0.00 0.00 71 1009.8
20260504043528 87 71 16.0 21.0 0.00 0.00 0.00 72 1009.4
20260504043026 87 88 15.0 21.0 0.00 0.00 0.00 73 1009.8
20260504042523 86 76 11.0 15.0 0.00 0.00 0.00 74 1009.8
20260504042020 86 88 11.0 15.0 0.00 0.00 0.00 74 1010.1
20260504041515 86 77 11.0 17.0 0.00 0.00 0.00 74 1010.1
20260504041011 86 73 11.0 14.0 0.00 0.00 0.00 73 1010.1
20260504040509 87 75 15.0 17.0 0.00 0.00 0.00 73 1010.1
20260504040006 87 67 16.0 21.0 0.00 0.00 0.00 72 1009.8
20260504035503 87 63 12.0 16.0 0.00 0.00 0.00 72 1010.1
20260504034959 88 76 19.0 25.0 0.00 0.00 0.00 70 1010.1
20260504034457 87 76 13.0 17.0 0.00 0.00 0.00 70 1010.1
20260504033954 87 76 17.0 23.0 0.00 0.00 0.00 71 1010.5
20260504033451 87 95 14.0 17.0 0.00 0.00 0.00 72 1010.1
20260504032948 86 93 11.0 18.0 0.00 0.00 0.00 76 1010.5
20260504032445 86 83 13.0 17.0 0.00 0.00 0.00 74 1010.5
20260504031942 87 91 14.0 20.0 0.00 0.00 0.00 73 1010.5
20260504031439 87 96 11.0 15.0 0.00 0.00 0.00 72 1010.5
20260504030936 87 95 13.0 20.0 0.00 0.00 0.00 72 1010.5
20260504030433 87 87 12.0 17.0 0.00 0.00 0.00 72 1010.5
20260504025928 87 71 15.0 19.0 0.00 0.00 0.00 72 1010.8
20260504025426 87 60 18.0 27.0 0.00 0.00 0.00 72 1010.5
20260504024923 87 87 16.0 21.0 0.00 0.00 0.00 72 1010.8
20260504024420 87 69 9.0 13.0 0.00 0.00 0.00 74 1011.1
20260504023917 87 78 17.0 20.0 0.00 0.00 0.00 73 1010.8
20260504023413 87 80 15.0 19.0 0.00 0.00 0.00 72 1010.8
20260504022908 87 99 13.0 20.0 0.00 0.00 0.00 72 1011.1
20260504022405 87 80 14.0 21.0 0.00 0.00 0.00 73 1010.8
20260504021902 87 55 18.0 22.0 0.00 0.00 0.00 73 1010.8
20260504021359 87 69 20.0 28.0 0.00 0.00 0.00 72 1010.8
20260504020856 87 69 15.0 19.0 0.00 0.00 0.00 72 1011.1
20260504020353 87 65 15.0 20.0 0.00 0.00 0.00 72 1011.1
20260504015849 87 67 17.0 25.0 0.00 0.00 0.00 72 1011.1
20260504015345 87 68 20.0 26.0 0.00 0.00 0.00 72 1011.1
20260504014841 87 63 15.0 22.0 0.00 0.00 0.00 74 1011.5
20260504014337 87 76 19.0 22.0 0.00 0.00 0.00 73 1011.5
20260504013835 87 74 19.0 24.0 0.00 0.00 0.00 72 1011.1
20260504013333 87 85 14.0 18.0 0.00 0.00 0.00 72 1011.5
20260504012830 87 75 17.0 22.0 0.00 0.00 0.00 72 1011.5
20260504012327 87 64 20.0 25.0 0.00 0.00 0.00 72 1011.1
20260504011825 86 71 16.0 26.0 0.00 0.00 0.00 73 1011.5
20260504011321 86 63 17.0 20.0 0.00 0.00 0.00 74 1011.5
20260504010817 86 68 16.0 20.0 0.00 0.00 0.00 73 1011.5
20260504010312 86 63 16.0 22.0 0.00 0.00 0.00 73 1011.5
20260504005809 86 67 14.0 18.0 0.00 0.00 0.00 73 1011.8
20260504005306 86 74 17.0 22.0 0.00 0.00 0.00 72 1011.8
20260504004804 86 70 16.0 19.0 0.00 0.00 0.00 74 1011.8
20260504004301 86 74 15.0 19.0 0.00 0.00 0.00 77 1011.8
20260504003758 86 74 15.0 18.0 0.00 0.00 0.00 76 1011.8
20260504003255 85 80 12.0 17.0 0.00 0.00 0.00 77 1012.2
20260504002751 86 67 16.0 19.0 0.00 0.00 0.00 76 1012.2
20260504002248 86 90 15.0 20.0 0.00 0.00 0.00 75 1012.2
20260504001746 86 66 9.0 12.0 0.00 0.00 0.00 75 1012.2
20260504001243 86 73 13.0 15.0 0.00 0.00 0.00 74 1012.2
20260504000739 86 62 15.0 20.0 0.00 0.00 0.00 75 1011.8
20260504000236 86 49 12.0 17.0 0.00 0.00 0.00 75 1012.2
20260503235735 86 74 15.0 18.0 0.00 0.00 0.00 74 1012.2
20260503235231 86 75 10.0 15.0 0.00 0.00 0.00 75 1012.2
20260503234729 86 72 15.0 23.0 0.00 0.00 0.00 74 1012.2
20260503234227 86 57 11.0 19.0 0.00 0.00 0.00 75 1011.8
20260503233724 86 81 12.0 13.0 0.00 0.00 0.00 74 1011.8
20260503233219 86 90 10.0 15.0 0.00 0.00 0.00 74 1011.8
20260503232717 86 76 14.0 19.0 0.00 0.00 0.00 74 1011.8
20260503232214 86 56 14.0 18.0 0.00 0.00 0.00 75 1011.8
20260503231712 86 71 14.0 19.0 0.00 0.00 0.00 74 1011.8
20260503231208 86 79 11.0 17.0 0.00 0.00 0.00 76 1011.8
20260503230705 85 71 16.0 20.0 0.00 0.00 0.00 77 1011.8
20260503230202 85 78 11.0 14.0 0.00 0.00 0.00 77 1011.8
20260503225659 84 80 10.0 13.0 0.00 0.00 0.00 79 1012.2
20260503225159 84 74 10.0 14.0 0.00 0.00 0.00 79 1011.8
20260503224657 84 60 8.0 12.0 0.00 0.00 0.00 80 1011.8
20260503224155 83 79 8.0 12.0 0.00 0.00 0.00 81 1011.8
20260503223652 83 73 9.0 11.0 0.00 0.00 0.00 81 1011.8
20260503223149 83 84 8.0 11.0 0.00 0.00 0.00 81 1011.8
20260503222646 83 77 10.0 11.0 0.00 0.00 0.00 81 1011.5
20260503222143 83 76 10.0 13.0 0.00 0.00 0.00 82 1011.5
20260503221642 83 74 10.0 13.0 0.00 0.00 0.00 83 1011.5
20260503221139 83 71 11.0 14.0 0.00 0.00 0.00 82 1011.5
20260503220635 83 77 9.0 12.0 0.00 0.00 0.00 81 1011.5
20260503220132 84 73 13.0 16.0 0.00 0.00 0.00 80 1011.1
20260503215630 83 59 11.0 14.0 0.00 0.00 0.00 81 1011.1
20260503215126 83 65 8.0 10.0 0.00 0.00 0.00 82 1011.1
20260503214625 83 74 8.0 11.0 0.00 0.00 0.00 82 1011.1
20260503214120 83 74 9.0 12.0 0.00 0.00 0.00 82 1011.1
20260503213620 83 75 10.0 12.0 0.00 0.00 0.00 82 1011.1
20260503213116 82 67 10.0 12.0 0.00 0.00 0.00 84 1011.1
20260503212613 82 62 8.0 10.0 0.00 0.00 0.00 85 1011.1
20260503212111 81 71 6.0 7.0 0.00 0.00 0.00 85 1011.1
20260503211608 81 69 5.0 7.0 0.00 0.00 0.00 85 1011.1
20260503211103 81 76 5.0 7.0 0.00 0.00 0.00 85 1011.1
20260503210600 81 82 5.0 6.0 0.00 0.00 0.00 86 1011.1
20260503210056 81 67 7.0 8.0 0.00 0.00 0.00 86 1011.1
20260503205552 81 61 4.0 6.0 0.00 0.00 0.00 86 1011.1
20260503205049 81 62 4.0 5.0 0.00 0.00 0.00 87 1010.8
20260503204546 80 63 5.0 6.0 0.00 0.00 0.00 87 1010.8
20260503204043 80 75 6.0 7.0 0.00 0.00 0.00 87 1010.8
20260503203540 80 70 7.0 8.0 0.00 0.00 0.00 87 1010.8
20260503203037 80 64 4.0 7.0 0.00 0.00 0.00 87 1010.8
20260503202535 80 64 5.0 6.0 0.00 0.00 0.00 87 1010.8
20260503202033 80 67 5.0 5.0 0.00 0.00 0.00 88 1010.5
20260503201531 80 71 5.0 6.0 0.00 0.00 0.00 88 1010.8
20260503201028 80 60 4.0 5.0 0.00 0.00 0.00 88 1010.8
20260503200524 80 63 4.0 5.0 0.00 0.00 0.00 88 1010.8
20260503200021 80 62 4.0 5.0 0.00 0.00 0.00 88 1010.8
20260503195518 80 73 4.0 5.0 0.00 0.00 0.00 87 1010.5
20260503195015 80 73 4.0 5.0 0.00 0.00 0.00 87 1010.8
20260503194512 80 96 4.0 4.0 0.00 0.00 0.00 87 1010.8
20260503194011 80 71 4.0 4.0 0.00 0.00 0.00 86 1010.8
20260503193508 80 67 5.0 6.0 0.00 0.00 0.00 86 1010.8
20260503193004 80 64 5.0 6.0 0.00 0.00 0.00 86 1010.8
20260503192500 80 74 4.0 6.0 0.00 0.00 0.00 86 1010.8
20260503191955 80 66 7.0 9.0 0.00 0.00 0.00 87 1010.5
20260503191453 80 68 6.0 7.0 0.00 0.00 0.00 87 1010.5
20260503190949 80 75 6.0 8.0 0.00 0.00 0.00 88 1010.5
20260503190447 80 73 6.0 8.0 0.00 0.00 0.00 89 1010.5
20260503185944 80 87 4.0 5.0 0.00 0.00 0.00 89 1010.5
20260503185440 80 66 5.0 6.0 0.00 0.00 0.00 89 1010.5
20260503184939 80 60 4.0 5.0 0.00 0.00 0.00 89 1010.5
20260503184436 80 58 4.0 5.0 0.00 0.00 0.00 89 1010.5
20260503183933 80 58 4.0 5.0 0.00 0.00 0.00 89 1010.5
20260503183429 80 65 3.0 4.0 0.00 0.00 0.00 89 1010.5
20260503182926 80 63 4.0 5.0 0.00 0.00 0.00 89 1010.5
20260503182425 80 55 5.0 7.0 0.00 0.00 0.00 89 1010.5
20260503181922 80 62 5.0 7.0 0.00 0.00 0.00 89 1010.5
20260503181419 80 57 4.0 5.0 0.00 0.00 0.00 88 1010.5
20260503180915 80 37 5.0 7.0 0.00 0.00 0.00 88 1010.5
20260503180414 80 42 6.0 9.0 0.00 0.00 0.00 88 1010.5
20260503175910 80 54 8.0 9.0 0.00 0.00 0.00 88 1010.5
20260503175408 80 51 6.0 8.0 0.00 0.00 0.00 88 1010.5